Hourly Weather Bolshie Kaskevichi

Today, 20 June, Sunday

Time Temperature Precipitation Wind Pressure Humidity
00:00 +19°C° 0 mm 2 mps 748 mmHg 92%
01:00 +19°C° 0 mm 2 mps 748 mmHg 93%
02:00 +19°C° 0 mm 2 mps 748 mmHg 93%
03:00 +19°C° 0 mm 2 mps 748 mmHg 93%
04:00 +19°C° 0 mm 2 mps 748 mmHg 93%
05:00 +20°C° 0 mm 2 mps 748 mmHg 93%
06:00 +21°C° 0 mm 2 mps 748 mmHg 88%
07:00 +24°C° 0 mm 2 mps 748 mmHg 82%
08:00 +26°C° 0 mm 3 mps 748 mmHg 77%
09:00 +27°C° 0 mm 3 mps 748 mmHg 73%
10:00 +27°C° 0 mm 3 mps 748 mmHg 68%
11:00 +28°C° 0 mm 4 mps 748 mmHg 64%
12:00 +29°C° 0 mm 4 mps 748 mmHg 62%
13:00 +29°C° 0 mm 3 mps 748 mmHg 60%
14:00 +30°C° 0 mm 3 mps 747 mmHg 58%
15:00 +29°C° 0 mm 3 mps 747 mmHg 60%
16:00 +29°C° 0 mm 3 mps 747 mmHg 63%
17:00 +29°C° 0 mm 3 mps 746 mmHg 66%
18:00 +28°C° 0 mm 3 mps 746 mmHg 71%
19:00 +26°C° 0 mm 3 mps 746 mmHg 77%
20:00 +24°C° 0 mm 2 mps 746 mmHg 83%
21:00 +23°C° 0 mm 2 mps 746 mmHg 85%
22:00 +21°C° 0 mm 2 mps 746 mmHg 87%
23:00 +20°C° 0 mm 2 mps 746 mmHg 89%

Tomorrow, 21 June, Monday

Time Temperature Precipitation Wind Pressure Humidity
00:00 +20°C° 0 mm 2 mps 746 mmHg 89%
01:00 +19°C° 0 mm 2 mps 746 mmHg 89%
02:00 +19°C° 0 mm 2 mps 746 mmHg 89%
03:00 +19°C° 0 mm 2 mps 746 mmHg 89%
04:00 +19°C° 0 mm 2 mps 746 mmHg 88%
05:00 +19°C° 0 mm 3 mps 746 mmHg 88%
06:00 +21°C° 0 mm 3 mps 746 mmHg 83%
07:00 +22°C° 0 mm 3 mps 746 mmHg 78%
08:00 +25°C° 0 mm 4 mps 746 mmHg 74%
09:00 +26°C° 0 mm 4 mps 745 mmHg 69%
10:00 +27°C° 0 mm 4 mps 745 mmHg 64%
11:00 +28°C° 0 mm 5 mps 745 mmHg 59%
12:00 +28°C° 0 mm 5 mps 745 mmHg 58%
13:00 +29°C° 0 mm 5 mps 745 mmHg 57%
14:00 +29°C° 0 mm 5 mps 745 mmHg 56%
15:00 +29°C° 0 mm 5 mps 745 mmHg 59%
16:00 +28°C° 0 mm 5 mps 744 mmHg 63%
17:00 +28°C° 0 mm 5 mps 744 mmHg 67%
18:00 +27°C° 0 mm 4 mps 744 mmHg 73%
19:00 +26°C° 0 mm 4 mps 744 mmHg 78%
20:00 +25°C° 0 mm 4 mps 744 mmHg 84%
21:00 +23°C° 0 mm 4 mps 744 mmHg 85%
22:00 +22°C° 0 mm 4 mps 744 mmHg 86%
23:00 +21°C° 0 mm 4 mps 744 mmHg 88%

Day after tomorrow, 22 June, Tuesday

Time Temperature Precipitation Wind Pressure Humidity
00:00 +21°C° 0 mm 4 mps 744 mmHg 90%
01:00 +20°C° 0 mm 3 mps 744 mmHg 92%
02:00 +20°C° 0 mm 3 mps 744 mmHg 95%
03:00 +20°C° 0 mm 3 mps 744 mmHg 94%
04:00 +20°C° 0 mm 3 mps 744 mmHg 94%
05:00 +20°C° 0 mm 3 mps 744 mmHg 93%
06:00 +22°C° 0 mm 4 mps 744 mmHg 88%
07:00 +23°C° 0 mm 4 mps 744 mmHg 82%
08:00 +26°C° 0 mm 4 mps 745 mmHg 77%
09:00 +27°C° 0 mm 5 mps 745 mmHg 73%
10:00 +28°C° 0 mm 5 mps 745 mmHg 68%
11:00 +29°C° 0 mm 5 mps 745 mmHg 64%
12:00 +29°C° 0 mm 5 mps 745 mmHg 61%
13:00 +30°C° 0 mm 5 mps 745 mmHg 57%
14:00 +32°C° 0 mm 5 mps 745 mmHg 54%
15:00 +32°C° 0 mm 5 mps 745 mmHg 56%
16:00 +30°C° 0 mm 5 mps 745 mmHg 58%
17:00 +30°C° 0 mm 4 mps 745 mmHg 60%
18:00 +28°C° 0 mm 4 mps 745 mmHg 67%
19:00 +27°C° 0 mm 3 mps 745 mmHg 74%
20:00 +25°C° 0 mm 3 mps 745 mmHg 81%
21:00 +24°C° 0 mm 3 mps 745 mmHg 84%
22:00 +22°C° 0 mm 3 mps 745 mmHg 87%
23:00 +21°C° 0 mm 3 mps 745 mmHg 89%

23 June, Wednesday

Time Temperature Precipitation Wind Pressure Humidity
00:00 +20°C° 0 mm 3 mps 745 mmHg 90%
01:00 +20°C° 0 mm 3 mps 746 mmHg 91%
02:00 +19°C° 0 mm 2 mps 746 mmHg 92%
03:00 +19°C° 0 mm 2 mps 746 mmHg 92%
04:00 +19°C° 0 mm 2 mps 746 mmHg 92%
05:00 +20°C° 0 mm 2 mps 746 mmHg 92%
06:00 +22°C° 0 mm 3 mps 746 mmHg 86%
07:00 +24°C° 0 mm 3 mps 746 mmHg 79%
08:00 +26°C° 0 mm 4 mps 747 mmHg 73%
09:00 +28°C° 0 mm 4 mps 747 mmHg 68%
10:00 +29°C° 0 mm 4 mps 747 mmHg 63%
11:00 +30°C° 0 mm 4 mps 747 mmHg 58%
12:00 +32°C° 0 mm 4 mps 747 mmHg 56%
13:00 +33°C° 0 mm 4 mps 747 mmHg 54%
14:00 +33°C° 0 mm 4 mps 747 mmHg 52%
15:00 +33°C° 0 mm 4 mps 747 mmHg 55%
16:00 +33°C° 0 mm 4 mps 747 mmHg 57%
17:00 +33°C° 0 mm 4 mps 746 mmHg 60%
18:00 +30°C° 0 mm 4 mps 746 mmHg 67%
19:00 +28°C° 0 mm 3 mps 746 mmHg 74%
20:00 +26°C° 0 mm 3 mps 746 mmHg 82%
21:00 +26°C° 0 mm 3 mps 746 mmHg 84%
22:00 +25°C° 0 mm 3 mps 746 mmHg 87%
23:00 +24°C° 0 mm 3 mps 747 mmHg 89%

24 June, Thursday

Time Temperature Precipitation Wind Pressure Humidity
00:00 +22°C° 0 mm 3 mps 747 mmHg 91%
01:00 +23°C° 0 mm 2 mps 747 mmHg 93%
02:00 +23°C° 0 mm 2 mps 747 mmHg 95%
03:00 +23°C° 0 mm 2 mps 747 mmHg 94%
04:00 +23°C° 0 mm 2 mps 747 mmHg 93%
05:00 +23°C° 0 mm 2 mps 747 mmHg 93%
06:00 +24°C° 0 mm 3 mps 747 mmHg 86%
07:00 +26°C° 0 mm 3 mps 747 mmHg 80%
08:00 +28°C° 0 mm 3 mps 747 mmHg 73%
09:00 +29°C° 0 mm 4 mps 747 mmHg 66%
10:00 +30°C° 0 mm 4 mps 747 mmHg 59%
11:00 +32°C° 0 mm 4 mps 747 mmHg 52%
12:00 +33°C° 0 mm 4 mps 747 mmHg 51%
13:00 +33°C° 0 mm 4 mps 747 mmHg 50%
14:00 +34°C° 0 mm 4 mps 746 mmHg 48%
15:00 +33°C° 0.1 mm 4 mps 746 mmHg 53%
16:00 +32°C° 0.1 mm 4 mps 745 mmHg 57%
17:00 +32°C° 0.1 mm 4 mps 745 mmHg 62%
18:00 +28°C° 1.6 mm 4 mps 745 mmHg 71%
19:00 +25°C° 1.6 mm 4 mps 745 mmHg 80%
20:00 +21°C° 1.6 mm 5 mps 745 mmHg 89%
21:00 +21°C° 0.7 mm 3 mps 745 mmHg 88%
22:00 +20°C° 0.7 mm 2 mps 745 mmHg 86%
23:00 +21°C° 0.7 mm 1 mps 745 mmHg 85%

25 June, Friday

Time Temperature Precipitation Wind Pressure Humidity
00:00 +20°C° 0 mm 2 mps 745 mmHg 86%
01:00 +20°C° 0 mm 2 mps 745 mmHg 87%
02:00 +20°C° 0 mm 2 mps 744 mmHg 88%
03:00 +20°C° 0 mm 2 mps 744 mmHg 89%
04:00 +20°C° 0 mm 2 mps 744 mmHg 91%
05:00 +20°C° 0 mm 2 mps 744 mmHg 92%
06:00 +22°C° 0 mm 3 mps 744 mmHg 87%
07:00 +25°C° 0 mm 3 mps 744 mmHg 83%
08:00 +27°C° 0 mm 3 mps 744 mmHg 78%
09:00 +28°C° 0 mm 4 mps 744 mmHg 71%
10:00 +29°C° 0 mm 4 mps 744 mmHg 64%
11:00 +32°C° 0 mm 4 mps 744 mmHg 58%
12:00 +32°C° 0 mm 4 mps 744 mmHg 55%
13:00 +33°C° 0 mm 4 mps 743 mmHg 52%
14:00 +33°C° 0 mm 4 mps 743 mmHg 49%
15:00 +33°C° 0 mm 4 mps 743 mmHg 52%
16:00 +32°C° 0 mm 4 mps 743 mmHg 56%
17:00 +30°C° 0 mm 3 mps 742 mmHg 59%
18:00 +29°C° 0 mm 3 mps 742 mmHg 64%
19:00 +27°C° 0 mm 3 mps 741 mmHg 70%
20:00 +25°C° 0 mm 3 mps 741 mmHg 75%
21:00 +25°C° 0 mm 3 mps 741 mmHg 75%
22:00 +24°C° 0 mm 3 mps 741 mmHg 75%
23:00 +22°C° 0 mm 3 mps 741 mmHg 74%
Show more